EW9798 Weather Reports


Display with metric or nautical units.
time (UTC)temp
F
wind
direction
speed
MPH
gust
MPH
rain 1hr
in
rain 24hr
in
rain mn
in
humidity
%
barometer
mb
20210803063100 69 124 3.0 0.0 0.00 0.00 0.00 78 1018.0
20210803061535 69 133 2.0 0.0 0.00 0.00 0.00 78 1018.0
20210803060040 69 121 4.0 0.0 0.00 0.00 0.00 79 1018.0
20210803054536 69 130 3.0 0.0 0.00 0.00 0.00 78 1018.0
20210803053030 71 135 2.0 0.0 0.00 0.00 0.00 73 1017.6
20210803050027 72 139 2.0 0.0 0.00 0.00 0.00 73 1017.6
20210803044614 72 135 3.0 0.0 0.00 0.00 0.00 72 1017.3
20210803043038 73 135 2.0 0.0 0.00 0.00 0.00 71 1017.3
20210803041535 74 135 1.0 0.0 0.00 0.00 0.00 78 1016.9
20210803034537 76 135 2.0 0.0 0.00 0.00 0.00 77 1016.6
20210803033039 78 130 3.0 0.0 0.00 0.00 0.00 76 1016.6
20210803031525 80 112 4.0 0.0 0.00 0.00 0.00 77 1016.2
20210803030035 81 120 3.0 0.0 0.00 0.00 0.00 79 1016.2
20210803024528 83 135 1.0 0.0 0.00 0.00 0.00 76 1016.2
20210803023033 83 135 1.0 0.0 0.00 0.00 0.00 76 1016.2
20210803021557 85 135 1.0 0.0 0.00 0.00 0.00 73 1015.9
20210803011613 90 107 2.0 0.0 0.00 0.00 0.00 66 1015.9
20210803003059 92 4 0.0 0.0 0.00 0.00 0.00 62 1016.2
20210803000037 92 189 0.0 0.0 0.00 0.00 0.00 62 1016.2
20210802234533 92 165 0.0 0.0 0.00 0.00 0.00 64 1016.6
20210802233038 93 157 0.0 0.0 0.00 0.00 0.00 59 1016.6
20210802231540 92 174 1.0 0.0 0.00 0.00 0.00 56 1016.9
20210802224540 92 202 0.0 0.0 0.00 0.00 0.00 52 1017.3
20210802221537 92 257 0.0 0.0 0.00 0.00 0.00 52 1017.3
20210802211146 88 315 0.0 0.0 0.00 0.00 0.00 53 1019.0
20210802203039 86 315 2.0 0.0 0.00 0.00 0.00 54 1019.0
20210802194538 83 337 0.0 0.0 0.00 0.00 0.00 58 1019.7
20210802191551 83 337 0.0 0.0 0.00 0.00 0.00 58 1019.7
20210802190027 82 317 0.0 0.0 0.00 0.00 0.00 57 1020.0
20210802184555 81 16 0.0 0.0 0.00 0.00 0.00 59 1020.4
20210802183029 80 303 0.0 0.0 0.00 0.00 0.00 61 1020.4
20210802181556 78 300 0.0 0.0 0.00 0.00 0.00 65 1020.4
20210802180043 77 337 0.0 0.0 0.00 0.00 0.00 67 1020.7
20210802174527 74 315 0.0 0.0 0.00 0.00 0.00 72 1021.1
20210802173037 74 315 0.0 0.0 0.00 0.00 0.00 72 1021.1
20210802171535 73 276 1.0 0.0 0.00 0.00 0.00 77 1021.1
20210802170047 71 315 0.0 0.0 0.00 0.00 0.00 78 1021.1
20210802164540 69 281 0.0 0.0 0.00 0.00 0.00 83 1021.4
20210802161540 67 265 0.0 0.0 0.00 0.00 0.00 85 1021.4
20210802160029 66 247 0.0 0.0 0.00 0.00 0.00 89 1021.4
20210802154537 64 213 0.0 0.0 0.00 0.00 0.00 93 1021.8
20210802153036 63 157 0.0 0.0 0.00 0.00 0.00 95 1021.8
20210802151536 62 157 0.0 0.0 0.00 0.00 0.00 96 1021.8
20210802150038 60 157 0.0 0.0 0.00 0.00 0.00 96 1021.8
20210802144537 59 157 0.0 0.0 0.00 0.00 0.00 96 1021.8
20210802143028 58 157 0.0 0.0 0.00 0.00 0.00 96 1021.4
20210802141545 57 157 0.0 0.0 0.00 0.00 0.00 95 1021.4
20210802140046 56 157 2.0 0.0 0.00 0.00 0.00 95 1021.4
20210802134529 56 157 1.0 0.0 0.00 0.00 0.00 94 1021.1
20210802133039 56 157 0.0 0.0 0.00 0.00 0.00 94 1021.1
20210802131532 56 157 1.0 0.0 0.00 0.00 0.00 94 1020.7
20210802130041 56 157 1.0 0.0 0.00 0.00 0.00 94 1020.7
20210802124529 57 147 2.0 0.0 0.00 0.00 0.00 94 1020.7
20210802123029 57 135 2.0 0.0 0.00 0.00 0.00 94 1020.7
20210802121553 57 135 2.0 0.0 0.00 0.00 0.00 93 1020.7
20210802120024 57 135 2.0 0.0 0.00 0.00 0.00 93 1020.7
20210802114537 58 135 2.0 0.0 0.00 0.00 0.00 93 1020.4
20210802113036 58 135 2.0 0.0 0.00 0.00 0.00 93 1020.4
20210802111534 59 135 0.0 0.0 0.00 0.00 0.00 93 1020.4
20210802110030 59 135 2.0 0.0 0.00 0.00 0.00 93 1020.0
20210802104539 59 135 2.0 0.0 0.00 0.00 0.00 93 1020.0
20210802103027 60 135 2.0 0.0 0.00 0.00 0.00 92 1020.0
20210802101533 60 180 1.0 0.0 0.00 0.00 0.00 92 1019.7
20210802100041 60 202 0.0 0.0 0.00 0.00 0.00 92 1019.7
20210802094537 60 174 0.0 0.0 0.00 0.00 0.00 91 1019.7
20210802093027 60 135 0.0 0.0 0.00 0.00 0.00 91 1019.7
20210802091527 61 135 2.0 0.0 0.00 0.00 0.00 91 1019.7
20210802090030 61 135 2.0 0.0 0.00 0.00 0.00 91 1019.7
20210802084529 62 101 0.0 0.0 0.00 0.00 0.00 89 1019.7
20210802083039 62 135 1.0 0.0 0.00 0.00 0.00 88 1019.7
20210802081524 62 147 2.0 0.0 0.00 0.00 0.00 87 1019.7
20210802080053 63 157 0.0 0.0 0.00 0.00 0.00 85 1019.7
20210802074537 64 141 1.0 0.0 0.00 0.00 0.00 83 1019.7
20210802073032 64 112 2.0 0.0 0.00 0.00 0.00 83 1019.3
20210802071549 64 122 4.0 0.0 0.00 0.00 0.00 83 1019.3
20210802070029 64 135 3.0 0.0 0.00 0.00 0.00 82 1019.3
20210802064526 66 128 1.0 0.0 0.00 0.00 0.00 80 1019.0